This is the latest recevied weather packets stored in our database for station/object K4KJQ-13. If no packets are shown the sender has not sent any weather packets the latest 10 day(s).
| Time | Temp. | Humidity | Pressure | Rain* | Wind** | Luminosity | Snow |
|---|---|---|---|---|---|---|---|
| 1777898773 | 12.78° C | 100% | 0 hPa | 0 mm | - | - | - |
| 1777898473 | 12.78° C | 100% | 0 hPa | 0 mm | - | - | - |
| 1777898173 | 12.78° C | 100% | 0 hPa | 0 mm | - | - | - |
| 1777897873 | 12.78° C | 100% | 0 hPa | 0 mm | - | - | - |
| 1777897573 | 12.78° C | 100% | 0 hPa | 0 mm | - | - | - |
| 1777897273 | 12.22° C | 100% | 0 hPa | 0 mm | - | - | - |
| 1777896973 | 12.22° C | 100% | 0 hPa | 0 mm | - | - | - |
| 1777896673 | 12.22° C | 100% | 0 hPa | 0 mm | - | - | - |
| 1777896373 | 12.22° C | 100% | 0 hPa | 0 mm | - | - | - |
| 1777896073 | 12.22° C | 100% | 0 hPa | 0 mm | - | - | - |
| 1777895773 | 12.22° C | 100% | 0 hPa | 0 mm | - | - | - |
| 1777895473 | 12.22° C | 100% | 0 hPa | 0 mm | - | - | - |
| 1777895173 | 11.67° C | 100% | 0 hPa | 0 mm | - | - | - |
| 1777894873 | 12.22° C | 100% | 0 hPa | 0 mm | - | - | - |
| 1777894573 | 12.22° C | 100% | 0 hPa | 0.25 mm | - | - | - |
| 1777894273 | 12.22° C | 100% | 0 hPa | 0.51 mm | - | - | - |
| 1777893973 | 12.22° C | 100% | 0 hPa | 1.02 mm | - | - | - |
| 1777893673 | 11.67° C | 100% | 0 hPa | 1.52 mm | - | - | - |
| 1777893373 | 11.67° C | 100% | 0 hPa | 1.78 mm | - | - | - |
| 1777893073 | 11.67° C | 100% | 0 hPa | 2.03 mm | - | - | - |
| 1777892773 | 11.11° C | 100% | 0 hPa | 2.03 mm | - | - | - |
| 1777892473 | 11.11° C | 100% | 0 hPa | 2.03 mm | - | - | - |
| 1777892173 | 11.11° C | 100% | 0 hPa | 2.29 mm | - | - | - |
| 1777891873 | 11.11° C | 100% | 0 hPa | 3.05 mm | - | - | - |
| 1777891573 | 10.56° C | 100% | 0 hPa | 3.56 mm | - | - | - |
* Rain latest hour (hover to see other rain measurements)
** Current wind speed in m/s (hover to see current wind gust speed)